TimeCDT,TemperatureF,Dew PointF,Humidity,Sea Level PressureIn,VisibilityMPH,Wind Direction,Wind SpeedMPH,Gust SpeedMPH,PrecipitationIn,Events,Conditions,WindDirDegrees,DateUTC
12:04 AM,75.2,69.8,83,29.91,10.0,South,18.4,26.5,N/A,,Scattered Clouds,190,2012-10-14 05:04:00
12:17 AM,75.2,69.8,83,29.92,10.0,South,19.6,26.5,N/A,,Mostly Cloudy,190,2012-10-14 05:17:00
12:53 AM,75.0,69.1,82,29.90,10.0,South,17.3,24.2,N/A,,Mostly Cloudy,190,2012-10-14 05:53:00
1:53 AM,75.0,69.1,82,29.92,10.0,South,12.7,-,N/A,,Overcast,190,2012-10-14 06:53:00
2:42 AM,75.2,69.8,83,29.93,10.0,SW,11.5,-,N/A,Thunderstorm,Overcast,220,2012-10-14 07:42:00
2:53 AM,75.0,69.1,82,29.94,8.0,West,9.2,-,0.01,Rain-Thunderstorm,Light Thunderstorms and Rain,280,2012-10-14 07:53:00
3:25 AM,73.4,69.8,88,29.94,1.8,Calm,Calm,-,0.23,Rain-Thunderstorm,Thunderstorms and Rain,0,2012-10-14 08:25:00
3:53 AM,73.0,71.1,93,29.90,9.0,South,10.4,-,0.38,Rain-Thunderstorm,Light Thunderstorms and Rain,170,2012-10-14 08:53:00
4:23 AM,73.4,71.6,94,29.96,1.8,Variable,4.6,-,0.14,Rain-Thunderstorm,Heavy Thunderstorms and Rain,0,2012-10-14 09:23:00
4:41 AM,71.6,71.6,100,29.94,1.2,Variable,4.6,-,0.42,Rain-Thunderstorm,Heavy Thunderstorms and Rain,0,2012-10-14 09:41:00
4:51 AM,71.6,71.6,100,29.94,1.8,South,17.3,24.2,0.51,Rain-Thunderstorm,Thunderstorms and Rain,190,2012-10-14 09:51:00
4:53 AM,72.0,72.0,100,29.93,2.0,SW,13.8,24.2,0.52,Rain-Thunderstorm,Thunderstorms and Rain,220,2012-10-14 09:53:00
4:58 AM,71.6,69.8,94,29.96,5.0,NW,11.5,24.2,0.01,Rain-Thunderstorm,Light Thunderstorms and Rain,310,2012-10-14 09:58:00
5:06 AM,69.8,69.8,100,29.97,5.0,West,5.8,-,0.03,Rain-Thunderstorm,Thunderstorms and Rain,280,2012-10-14 10:06:00
5:23 AM,71.6,71.6,100,29.97,8.0,SSW,5.8,-,0.04,Rain-Thunderstorm,Light Rain,210,2012-10-14 10:23:00
5:42 AM,71.6,71.6,100,29.98,4.0,South,9.2,-,0.07,Rain,Rain,190,2012-10-14 10:42:00
5:53 AM,72.0,72.0,100,29.95,6.0,SSW,9.2,-,0.08,Rain,Light Rain,200,2012-10-14 10:53:00
6:53 AM,70.0,69.1,97,29.96,10.0,South,6.9,-,0.00,,Clear,180,2012-10-14 11:53:00
7:53 AM,70.0,68.0,93,29.97,8.0,SW,4.6,-,N/A,,Clear,230,2012-10-14 12:53:00
8:34 AM,71.6,69.8,94,30.01,9.0,West,4.6,-,N/A,,Mostly Cloudy,270,2012-10-14 13:34:00
8:53 AM,71.1,69.1,93,29.99,8.0,West,8.1,-,N/A,,Overcast,280,2012-10-14 13:53:00
9:01 AM,71.6,69.8,94,30.01,8.0,WSW,5.8,-,N/A,,Mostly Cloudy,250,2012-10-14 14:01:00
9:11 AM,71.6,69.8,94,30.02,8.0,WSW,3.5,-,N/A,,Partly Cloudy,240,2012-10-14 14:11:00
9:33 AM,71.6,69.8,94,30.04,8.0,WSW,5.8,-,N/A,,Mostly Cloudy,250,2012-10-14 14:33:00
9:44 AM,71.6,69.8,94,30.04,7.0,SW,6.9,-,N/A,,Mostly Cloudy,230,2012-10-14 14:44:00
9:53 AM,73.0,70.0,90,30.03,6.0,WSW,8.1,-,N/A,,Mostly Cloudy,240,2012-10-14 14:53:00
10:15 AM,73.4,69.8,88,30.05,7.0,WSW,6.9,-,N/A,,Mostly Cloudy,250,2012-10-14 15:15:00
10:24 AM,73.4,69.8,88,30.05,8.0,WSW,8.1,-,N/A,,Scattered Clouds,250,2012-10-14 15:24:00
10:53 AM,75.9,64.9,69,30.04,10.0,WSW,9.2,-,N/A,,Partly Cloudy,240,2012-10-14 15:53:00
11:53 AM,79.0,60.1,52,30.04,10.0,West,6.9,-,N/A,,Clear,270,2012-10-14 16:53:00
12:53 PM,81.0,55.9,42,30.04,10.0,West,3.5,-,N/A,,Clear,260,2012-10-14 17:53:00
1:53 PM,81.0,57.0,44,30.01,10.0,West,9.2,-,N/A,,Clear,280,2012-10-14 18:53:00
3:53 PM,82.0,51.1,34,30.00,10.0,NW,11.5,-,N/A,,Clear,310,2012-10-14 20:53:00
4:53 PM,82.0,55.0,39,30.01,10.0,NW,8.1,-,N/A,,Clear,320,2012-10-14 21:53:00
5:53 PM,79.0,55.0,44,30.01,10.0,NW,3.5,-,N/A,,Clear,320,2012-10-14 22:53:00
6:53 PM,73.9,57.9,57,30.01,10.0,WNW,3.5,-,N/A,,Clear,300,2012-10-14 23:53:00
7:53 PM,70.0,61.0,73,30.02,10.0,Calm,Calm,-,N/A,,Clear,0,2012-10-15 00:53:00
8:53 PM,66.0,60.1,81,30.04,10.0,NNW,3.5,-,N/A,,Clear,340,2012-10-15 01:53:00
9:53 PM,66.9,57.9,73,30.06,10.0,North,4.6,-,N/A,,Clear,350,2012-10-15 02:53:00
10:53 PM,66.0,57.0,73,30.08,10.0,North,4.6,-,N/A,,Clear,350,2012-10-15 03:53:00
11:53 PM,64.0,57.0,78,30.08,10.0,North,3.5,-,N/A,,Clear,350,2012-10-15 04:53:00